Location: Aufkirchen
(47.9603°N, 11.3653°E)
Time: 17:23:57
(UTC+01:00)

Transit 4A - Pass Details

Date: 04 December 2020
Orbit: 864 x 980 km, 66.8° (Epoch: 26 January)

Event Time Altitude Azimuth Distance (km) Brightness Sun altitude
Rises 11:29:04 0° 306° (NW) 3,688 10.6 19.3°
Reaches altitude 10° 11:33:13 10° 332° (NNW) 2,740 9.9 19.4°
Maximum altitude 11:36:22 14° 1° (N) 2,464 9.6 19.4°
Drops below altitude 10° 11:39:31 10° 31° (NNE) 2,728 10.0 19.5°
Sets 11:43:37 0° 57° (ENE) 3,658 10.7 19.5°
